Showing default

METEOR M2, 40069

Orbit data source: Space-Track

METEOR M2, 40069 is a Commonwealth of Independent States-origin payload satellite in SSO that was launched on Tue, 08 Jul 2014 UTC via a SOYUZ-2-1B launch vehicle from the Tyuratam Missile And Space Complex (TTMTR). Payloads include a variety of satellites, spacecraft, and rockets equipped with specific instruments for various scientific and technological missions. These include communications satellites like Starlink; space stations such as the ISS; scientific satellites like the Hubble; Earth observation satellites from companies like Planet Labs, Umbra, and HawkEye 360; GPS; miniature CubeSats for education and research; and military/defense satellites.

Loading next visibility...
METEOR M2 details
Identifier
40069, 2014-037A
Orbit
SSO
Last TLE update9 hours ago
Origin
Flag of CISRGMS/VNIIEMI (CIS)
ManufacturerVNIIEM
MissionPartially operational Civil Weather
Bus & MotorRESURS-O, Unknown motor
Mass2,879 kg wet, ~2,600 kg dry
Launch date (UTC)
2014-07-08 (10 years ago)
Launch vehicle
SOYUZ-2-1B
Launch site
Tyuratam Missile And Space Complex (TTMTR)
Object type
Payload
Rocket body
Debris
Shape & HBRCyl + 2 Pan, 14 m
Radar Cross Section26.744 m², Large (>1 m²)

Expand to show TLE details & history

TLE from 9 hours ago
0 METEOR M2
1 40069U 14037A   24361.10789074  .00000392  00000-0  19953-3 0  9990
2 40069  98.4524 346.9419 0006186 150.5497 209.6031 14.21172190542887
Epoch: 2024-12-26T02:35Z
Definitive object data (Epoch: 2024-12-26T02:35:21.759Z)
Latitude
Longitude-146.99079°
Altitude828.189 km
Speed7.437 km/s
True Right ascension23h 07m 46s
True Declination0° 00' 00"
Sunlit
Object was in daylight at TLE epoch
Visualization TLE readout
Latitude50.17006°
Longitude-156.85259°
Altitude830.032 km
Speed7.442 km/s
Apparent Right ascension22h 33m 14s
Apparent Declination8° 36' 32"
Sunlit
Object is in daylight
Visualization observer readout
Local Sidereal Time10:37:53
Azimuth1.533° NNE
Elevation-41.463°
Doppler factor1
Orbital elements
Apogee altitude822.988 km
Perigee altitude814.084 km
Semi-major axis7,196.673 km
Eccentricity0.0006186
Inclination98.4524°
RAAN346.9419°
Arg. of periapsis150.5497°
True anomaly209.56811°
Mean anomaly209.6031°
Eccentric anomaly209.5856°
Mean motion3.55505 °/min
BSTAR0.00019953
Orbital period101.26 mins
Loading maneuver chart data...
Loading historical data...
Loading historical data...
Loading historical data...
Loading historical data...
Loading historical data...
Loading historical data...
Loading historical data...

METEOR M2 Visibility forecast

Observer location: undefined°, undefined

Span
Click to sort rows by Start time (UTC) header in descending order
Start Az.
Max El. time (UTC)
Max El. Az.
Max El.
End time (UTC)
End Az.
9 mins2024-12-26 11:37:33.929Z30.193° NE2024-12-26 11:41:33.929Z88.083° E34.152°2024-12-26 11:46:33.929Z168.51° S
6 mins2024-12-26 13:19:33.929Z328.167° NNW2024-12-26 13:21:33.929Z297.947° NW21.899°2024-12-26 13:25:33.929Z245.615° WSW
9 mins2024-12-26 22:59:33.929Z151.45° SSE2024-12-26 23:03:33.929Z71.764° E42.3°2024-12-26 23:08:33.929Z353.318° N
4 mins2024-12-27 00:42:33.929Z250.134° W2024-12-27 00:44:33.929Z275.197° WNW14.346°2024-12-27 00:46:33.929Z298.492° NW
|